Two Harbors, MN

8:49 AM CDT on August 27, 2016 (GMT -0500)
Helgeson

Weather History for KTWM - September, 2012

Change the Weather History Date:

Tuesday, September 25, 2012

  Actual Average Record
Temperature  
Mean Temperature 44 °F -  
Max Temperature 55 °F 62 °F 78 °F (1963)
Min Temperature 32 °F 43 °F 30 °F (2001)
Degree Days  
Heating Degree Days 22    
Moisture  
Dew Point 31 °F    
Average Humidity 64    
Maximum Humidity 87    
Minimum Humidity 44    
Precipitation  
Precipitation 0.00 in - - ()
Sea Level Pressure  
Sea Level Pressure 29.90 in    
Wind  
Wind Speed 3 mph (NNW)    
Max Wind Speed 7 mph    
Max Gust Speed -    
Visibility 10 miles    
Events      
Averages and records for this station are not official NWS values.
T = Trace of Precipitation, MM = Missing Value Source: NWS Daily Summary

Daily Weather History Graph

Daily Weather History Graph

Search for Another Location

Airport or City:

Trip Planner

Search our weather history database for the weather conditions in past years. The results will help you decide how hot, cold, wet, or windy it might be!

Date:

Astronomy

Sep. 25, 2012 Rise Set
Actual Time 6:58 AM CDT 6:57 PM CDT
Civil Twilight 6:28 AM CDT 7:27 PM CDT
Nautical Twilight 5:52 AM CDT 8:03 PM CDT
Astronomical Twilight 5:15 AM CDT 8:39 PM CDT
Moon 4:35 PM CDT (9/25) 2:04 AM CDT (9/25)
Length of Visible Light 12h 59m
Length of Day
11h 59m
Waxing Gibbous, 80% of the Moon is Illuminated
Sep 25
Waxing Gibbous
Sep 29
Full
Oct 8
Last Quarter
Oct 15
New
Oct 21
First Quarter

Hourly Weather History & Observations

Time (CDT) Temp. Windchill Dew Point Humidity Pressure Visibility Wind Dir Wind Speed Gust Speed Precip Events Conditions
12:31 AM 37.4 °F 34.9 °F 30.2 °F 75% 29.84 in 10.0 mi North 3.5 mph - N/A   Clear
1:12 AM 37.4 °F 33.8 °F 30.2 °F 75% 29.85 in 10.0 mi North 4.6 mph - N/A   Clear
1:31 AM 37.4 °F 34.9 °F 30.2 °F 75% 29.85 in 10.0 mi North 3.5 mph - N/A   Clear
1:51 AM 35.6 °F 31.7 °F 30.2 °F 81% 29.84 in 10.0 mi North 4.6 mph - N/A   Clear
2:12 AM 35.6 °F 32.8 °F 28.4 °F 75% 29.84 in 10.0 mi North 3.5 mph - N/A   Clear
2:31 AM 35.6 °F - 28.4 °F 75% 29.85 in 10.0 mi Calm Calm - N/A   Clear
2:51 AM 35.6 °F 32.8 °F 28.4 °F 75% 29.85 in 10.0 mi North 3.5 mph - N/A   Clear
3:12 AM 39.2 °F 35.9 °F 30.2 °F 70% 29.85 in 10.0 mi North 4.6 mph - N/A   Clear
3:31 AM 33.8 °F - 26.6 °F 75% 29.85 in 10.0 mi Calm Calm - N/A   Clear
3:51 AM 37.4 °F 33.8 °F 30.2 °F 75% 29.85 in 10.0 mi North 4.6 mph - N/A   Clear
4:12 AM 37.4 °F 34.9 °F 30.2 °F 75% 29.86 in 10.0 mi North 3.5 mph - N/A   Clear
4:31 AM 37.4 °F - 30.2 °F 75% 29.86 in 10.0 mi Calm Calm - N/A   Clear
4:51 AM 33.8 °F 29.6 °F 28.4 °F 81% 29.86 in 10.0 mi NNW 4.6 mph - N/A   Clear
5:12 AM 35.6 °F 32.8 °F 28.4 °F 75% 29.86 in 10.0 mi NNW 3.5 mph - N/A   Clear
5:31 AM 35.6 °F 32.8 °F 30.2 °F 81% 29.87 in 10.0 mi NNW 3.5 mph - N/A   Clear
5:51 AM 33.8 °F 29.6 °F 28.4 °F 81% 29.87 in 10.0 mi NNW 4.6 mph - N/A   Clear
6:12 AM 35.6 °F 32.8 °F 30.2 °F 81% 29.87 in 10.0 mi NW 3.5 mph - N/A   Clear
6:31 AM 33.8 °F 29.6 °F 28.4 °F 81% 29.87 in 10.0 mi NW 4.6 mph - N/A   Clear
6:51 AM 33.8 °F - 28.4 °F 81% 29.88 in 10.0 mi Calm Calm - N/A   Clear
7:11 AM 32.0 °F - 28.4 °F 87% 29.88 in 10.0 mi Calm Calm - N/A   Clear
7:31 AM 35.6 °F - 30.2 °F 81% 29.88 in 10.0 mi Calm Calm - N/A   Clear
7:51 AM 35.6 °F - 28.4 °F 75% 29.88 in 10.0 mi Calm Calm - N/A   Clear
8:12 AM 42.8 °F - 33.8 °F 70% 29.89 in 10.0 mi Calm Calm - N/A   Clear
8:31 AM 44.6 °F - 35.6 °F 71% 29.89 in 10.0 mi Calm Calm - N/A   Clear
8:51 AM 46.4 °F - 35.6 °F 66% 29.89 in 10.0 mi Calm Calm - N/A   Clear
9:12 AM 50.0 °F - 35.6 °F 58% 29.90 in 10.0 mi North 4.6 mph - N/A   Clear
9:31 AM 50.0 °F - 35.6 °F 58% 29.90 in 10.0 mi North 4.6 mph - N/A   Clear
9:51 AM 53.6 °F - 35.6 °F 51% 29.91 in 10.0 mi NNW 6.9 mph - N/A   Clear
10:12 AM 55.4 °F - 33.8 °F 44% 29.91 in 10.0 mi NNW 5.8 mph - N/A   Clear
10:31 AM 53.6 °F - 32.0 °F 44% 29.91 in 10.0 mi North 6.9 mph - N/A   Clear
10:51 AM 53.6 °F - 32.0 °F 44% 29.91 in 10.0 mi NW 3.5 mph - N/A   Clear
11:12 AM 53.6 °F - 32.0 °F 44% 29.92 in 10.0 mi Calm Calm - N/A   Scattered Clouds
11:31 AM 53.6 °F - 33.8 °F 47% 29.92 in 10.0 mi SSE 3.5 mph - N/A   Scattered Clouds
11:51 AM 51.8 °F - 35.6 °F 54% 29.92 in 10.0 mi SSE 3.5 mph - N/A   Mostly Cloudy
12:11 PM 51.8 °F - 35.6 °F 54% 29.92 in 10.0 mi Calm Calm - N/A   Overcast
12:31 PM 51.8 °F - 33.8 °F 50% 29.91 in 10.0 mi West 6.9 mph - N/A   Overcast
12:52 PM 53.6 °F - 32.0 °F 44% 29.91 in 10.0 mi WNW 6.9 mph - N/A   Overcast
1:11 PM 53.6 °F - 32.0 °F 44% 29.91 in 10.0 mi NW 6.9 mph - N/A   Overcast
2:11 PM 53.6 °F - 32.0 °F 44% 29.90 in 10.0 mi West 4.6 mph - N/A   Overcast
2:31 PM 53.6 °F - 33.8 °F 47% 29.90 in 10.0 mi NNW 6.9 mph - N/A   Overcast
2:48 PM 53.6 °F - 33.8 °F 47% 29.90 in 10.0 mi NW 4.6 mph - N/A   Overcast
3:12 PM 53.6 °F - 33.8 °F 47% 29.89 in 10.0 mi NNW 5.8 mph - N/A   Overcast
3:31 PM 53.6 °F - 32.0 °F 44% 29.89 in 10.0 mi WNW 5.8 mph - N/A   Overcast
3:51 PM 53.6 °F - 33.8 °F 47% 29.89 in 10.0 mi WNW 4.6 mph - N/A   Overcast
4:12 PM 53.6 °F - 32.0 °F 44% 29.89 in 10.0 mi West 5.8 mph - N/A   Overcast
4:31 PM 53.6 °F - 33.8 °F 47% 29.89 in 10.0 mi Calm Calm - N/A   Overcast
4:51 PM 53.6 °F - 33.8 °F 47% 29.90 in 10.0 mi NNW 6.9 mph - N/A   Mostly Cloudy
5:12 PM 53.6 °F - 33.8 °F 47% 29.90 in 10.0 mi NW 4.6 mph - N/A   Overcast
5:31 PM 53.6 °F - 33.8 °F 47% 29.90 in 10.0 mi Calm Calm - N/A   Mostly Cloudy
5:51 PM 53.6 °F - 32.0 °F 44% 29.90 in 10.0 mi North 4.6 mph - N/A   Scattered Clouds
6:12 PM 51.8 °F - 32.0 °F 47% 29.91 in 10.0 mi NNW 3.5 mph - N/A   Clear
6:31 PM 51.8 °F - 32.0 °F 47% 29.91 in 10.0 mi Calm Calm - N/A   Scattered Clouds
6:52 PM 48.2 °F - 32.0 °F 54% 29.91 in 10.0 mi North 3.5 mph - N/A   Clear
7:11 PM 46.4 °F - 32.0 °F 57% 29.92 in 10.0 mi Calm Calm - N/A   Scattered Clouds
7:51 PM 42.8 °F - 32.0 °F 66% 29.93 in 10.0 mi Calm Calm - N/A   Scattered Clouds
8:12 PM 41.0 °F - 30.2 °F 65% 29.94 in 10.0 mi Calm Calm - N/A   Scattered Clouds
8:31 PM 39.2 °F - 30.2 °F 70% 29.94 in 10.0 mi Calm Calm - N/A   Clear
8:51 PM 37.4 °F - 30.2 °F 75% 29.94 in 10.0 mi Calm Calm - N/A   Clear
9:12 PM 35.6 °F - 28.4 °F 75% 29.94 in 10.0 mi Calm Calm - N/A   Clear
9:31 PM 33.8 °F - 28.4 °F 81% 29.95 in 10.0 mi Calm Calm - N/A   Clear
9:52 PM 33.8 °F - 28.4 °F 81% 29.95 in 10.0 mi Calm Calm - N/A   Clear
10:12 PM 33.8 °F - 28.4 °F 81% 29.96 in 10.0 mi Calm Calm - N/A   Clear
10:31 PM 32.0 °F - 28.4 °F 87% 29.96 in 10.0 mi Calm Calm - N/A   Clear
10:51 PM 35.6 °F 32.8 °F 28.4 °F 75% 29.96 in 10.0 mi NW 3.5 mph - N/A   Scattered Clouds
11:12 PM 37.4 °F 34.9 °F 30.2 °F 75% 29.97 in 10.0 mi NW 3.5 mph - N/A   Mostly Cloudy
11:31 PM 37.4 °F - 30.2 °F 75% 29.97 in 10.0 mi Calm Calm - N/A   Overcast
11:51 PM 39.2 °F 37.0 °F 32.0 °F 75% 29.97 in 10.0 mi NNW 3.5 mph - N/A   Overcast